Terminal Aerodrome Forecast
Issued by NWS Knoxville/Tri Cities, TN

Home | Current Version | Previous Version | Text Only | Print | Product List | Glossary On
Versions: 1 2 3 4 5 6 7 8 9 10 11 12 13 14 15 16 17 18 19 20 21 22 23 24 25 26 27
000
FTUS44 KMRX 310528
TAFCHA
TAF
KCHA 310528Z 3106/0106 VRB03KT P6SM BKN050
     FM310800 00000KT P6SM BKN035
     FM311000 00000KT P6SM OVC025
     FM311500 00000KT P6SM BKN035
     FM311800 04004KT P6SM SCT040 BKN150
     FM010100 02003KT P6SM FEW050 SCT250=

USA.gov is the U.S. government's official web portal to all federal, state and local government web resources and services.